KUZGTU 1 (RS47S)

Last updated on Mon Sep 21 2026 00:03:14 GMT+0000 (Coordinated Universal Time)

1 57217U 23091AV 26263.59895233 .00008940 00000+0 29353-3 0 9995 2 57217 97.4969 329.1319 0011769 115.8213 244.4243 15.31754116178970
UTC large
Height (km)
Speed (km/s)
/
Latitude / Longitude
Inclination (degrees)
Orbital Period (minutes)
Azimuth
Elevation
Range (km)
Doppler Factor

Next 0 passes for location: London (51.5072 / 0.1276)

No passes found over London.
KUZGTU 1 (RS47S)